Location: Street
(51.1247°N, 2.7429°W)
Time: 10:19:45
(UTC+01:00)

PCSat - Pass Details

Date: 05 April 2023
Orbit: 783 x 794 km, 67.1° (Epoch: 29 May)

Event Time Altitude Azimuth Distance (km) Brightness Sun altitude
Rises 00:13:52 0° 321° (NW) 3,303 13.7 -31.5°
Reaches altitude 10° 00:16:18 10° 318° (NW) 2,371 12.8 -31.7°
Enters shadow 00:20:00 42° 299° (WNW) 1,124 10.5 -31.8°
